,,Stat1,,Stat2,,Stat3,,Stat4,,Wind1,,Wind1,
time,status,PR1M_SUM,status,RH1M_AVG,status,SR1M_AVG,status,TA1M_AVG,status,W1dAve1m,status,W1sAve1m,
1999-12-28, 00:01:00,VALID,0,VALID,87.7089,VALID,0,VALID,20.3197,VALID,187,VALID,1.9998,
1999-12-28, 00:02:00,VALID,0,VALID,87.7725,VALID,-0.0509425,VALID,20.2675,VALID,201,VALID,1.79461,
1999-12-28, 00:03:00,VALID,0,VALID,87.9505,VALID,0,VALID,20.2443,VALID,207,VALID,1.6986,
1999-12-28, 00:04:00,VALID,0,VALID,87.9404,VALID,-0.0169808,VALID,20.2384,VALID,201,VALID,1.59332,
1999-12-28, 00:05:00,VALID,0,VALID,88.3969,VALID,0,VALID,20.2117,VALID,175,VALID,1.09071,
1999-12-28, 00:06:00,VALID,0,VALID,88.3549,VALID,-0.0339617,VALID,20.1896,VALID,186,VALID,1.79643,
1999-12-28, 00:07:00,VALID,0,VALID,88.463,VALID,0,VALID,20.1667,VALID,192,VALID,1.78826,
1999-12-28, 00:08:00,VALID,0,VALID,88.7377,VALID,0,VALID,20.1411,VALID,203,VALID,1.23304,
1999-12-28, 00:09:00,VALID,0,VALID,88.5189,VALID,-0.0169808,VALID,20.1247,VALID,214,VALID,1.99349,
1999-12-28, 00:10:00,VALID,0,VALID,88.8178,VALID,0,VALID,20.1406,VALID,197,VALID,0.715848,
1999-12-28, 00:11:00,VALID,0,VALID,88.7275,VALID,-0.0169808,VALID,20.1409,VALID,214,VALID,1.8151,
1999-12-28, 00:12:00,VALID,0,VALID,88.7364,VALID,-0.0169808,VALID,20.1277,VALID,202,VALID,1.7817,
1999-12-28, 00:13:00,VALID,0,VALID,88.6258,VALID,0,VALID,20.1346,VALID,219,VALID,1.97114,
1999-12-28, 00:14:00,VALID,0,VALID,88.9182,VALID,0,VALID,20.1449,VALID,192,VALID,1.50871,
1999-12-28, 00:15:00,VALID,0,VALID,89.1891,VALID,-0.0339617,VALID,20.1152,VALID,190,VALID,1.49279,
1999-12-28, 00:16:00,VALID,0,VALID,88.9513,VALID,0,VALID,20.1023,VALID,207,VALID,1.89821,
1999-12-28, 00:17:00,VALID,0,VALID,89.0238,VALID,0,VALID,20.0986,VALID,227,VALID,1.96745,
1999-12-28, 00:18:00,VALID,0,VALID,88.9258,VALID,0,VALID,20.1053,VALID,227,VALID,1.72857,
1999-12-28, 00:19:00,VALID,0,VALID,89.3569,VALID,-0.0339617,VALID,20.1123,VALID,228,VALID,1.71595,
1999-12-28, 00:20:00,VALID,0,VALID,89.4129,VALID,-0.0169808,VALID,20.0707,VALID,228,VALID,2.01942,
1999-12-28, 00:21:00,VALID,0,VALID,89.6545,VALID,-0.0509425,VALID,20.0384,VALID,226,VALID,1.50152,
1999-12-28, 00:22:00,VALID,0,VALID,89.8935,VALID,0,VALID,19.9924,VALID,220,VALID,1.94754,
1999-12-28, 00:23:00,VALID,0,VALID,89.7562,VALID,-0.0169808,VALID,19.9665,VALID,215,VALID,2.48638,
1999-12-28, 00:24:00,VALID,0,VALID,89.8096,VALID,0,VALID,19.9668,VALID,216,VALID,1.39487,
1999-12-28, 00:25:00,VALID,0,VALID,89.835,VALID,-0.0169808,VALID,19.9606,VALID,205,VALID,1.59288,
1999-12-28, 00:26:00,VALID,0,VALID,89.933,VALID,0,VALID,19.9541,VALID,235,VALID,1.73549,
1999-12-28, 00:27:00,VALID,0,VALID,89.5311,VALID,-0.0849042,VALID,19.9509,VALID,221,VALID,2.23678,
1999-12-28, 00:28:00,VALID,0,VALID,89.4561,VALID,-0.0169808,VALID,19.9894,VALID,214,VALID,1.66897,
1999-12-28, 00:29:00,VALID,0,VALID,89.5591,VALID,-0.0169808,VALID,20.0158,VALID,211,VALID,1.3201,
1999-12-28, 00:30:00,VALID,0,VALID,89.4663,VALID,0,VALID,20.0155,VALID,213,VALID,1.53571,
1999-12-28, 00:31:00,VALID,0,VALID,89.4536,VALID,-0.0339617,VALID,20.012,VALID,217,VALID,2.28305,
1999-12-28, 00:32:00,VALID,0,VALID,89.0873,VALID,0,VALID,20.0419,VALID,221,VALID,2.23638,
1999-12-28, 00:33:00,VALID,0,VALID,89.1586,VALID,0,VALID,20.0608,VALID,219,VALID,1.38932,
1999-12-28, 00:34:00,VALID,0,VALID,88.992,VALID,0,VALID,20.0635,VALID,194,VALID,2.05067,
1999-12-28, 00:35:00,VALID,0,VALID,89.2005,VALID,0,VALID,20.0772,VALID,232,VALID,1.72656,
1999-12-28, 00:36:00,VALID,0,VALID,89.2755,VALID,-0.0339617,VALID,20.0732,VALID,217,VALID,1.44353,
1999-12-28, 00:37:00,VALID,0,VALID,89.2412,VALID,0,VALID,20.0675,VALID,220,VALID,1.82357,
1999-12-28, 00:38:00,VALID,0,VALID,89.0034,VALID,-0.0169808,VALID,20.0643,VALID,233,VALID,2.23728,
1999-12-28, 00:39:00,VALID,0,VALID,89.54,VALID,-0.0679233,VALID,20.0804,VALID,193,VALID,1.18329,
1999-12-28, 00:40:00,VALID,0,VALID,89.9648,VALID,-0.0169808,VALID,20.0282,VALID,196,VALID,1.5567,
1999-12-28, 00:41:00,VALID,0,VALID,90.0576,VALID,-0.0339617,VALID,19.9767,VALID,214,VALID,1.41645,
1999-12-28, 00:42:00,VALID,0,VALID,90.2839,VALID,-0.0169808,VALID,19.9441,VALID,215,VALID,1.45402,
1999-12-28, 00:43:00,VALID,0,VALID,90.1504,VALID,-0.0509425,VALID,19.9083,VALID,209,VALID,2.03746,
1999-12-28, 00:44:00,VALID,0,VALID,90.0334,VALID,-0.0679233,VALID,19.9476,VALID,193,VALID,1.75826,
1999-12-28, 00:45:00,VALID,0,VALID,89.8389,VALID,-0.0509425,VALID,19.9638,VALID,224,VALID,1.69531,
1999-12-28, 00:46:00,VALID,0,VALID,89.863,VALID,-0.0339617,VALID,19.98,VALID,211,VALID,1.66094,
1999-12-28, 00:47:00,VALID,0,VALID,89.4141,VALID,-0.0339617,VALID,19.9996,VALID,217,VALID,1.69191,
1999-12-28, 00:48:00,VALID,0,VALID,89.1636,VALID,-0.0679233,VALID,20.0479,VALID,175,VALID,1.80379,
1999-12-28, 00:49:00,VALID,0,VALID,89.0098,VALID,-0.0169808,VALID,20.0964,VALID,211,VALID,2.06163,
1999-12-28, 00:50:00,VALID,0,VALID,89.0467,VALID,-0.0339617,VALID,20.0926,VALID,211,VALID,2.01138,
1999-12-28, 00:51:00,VALID,0,VALID,88.9258,VALID,-0.0339617,VALID,20.0867,VALID,210,VALID,2.17288,
1999-12-28, 00:52:00,VALID,0,VALID,88.9246,VALID,-0.0509425,VALID,20.1125,VALID,200,VALID,1.47902,
1999-12-28, 00:53:00,VALID,0,VALID,88.9169,VALID,-0.0339617,VALID,20.1192,VALID,212,VALID,1.67513,
1999-12-28, 00:54:00,VALID,0,VALID,88.6563,VALID,-0.0339617,VALID,20.1255,VALID,203,VALID,1.63661,
1999-12-28, 00:55:00,VALID,0,VALID,88.7822,VALID,-0.0339617,VALID,20.1478,VALID,205,VALID,0.9375,
1999-12-28, 00:56:00,VALID,0,VALID,88.9843,VALID,0,VALID,20.154,VALID,167,VALID,1.08973,
1999-12-28, 00:57:00,VALID,0,VALID,88.8979,VALID,-0.0169808,VALID,20.1414,VALID,161,VALID,1.12977,
1999-12-28, 00:58:00,VALID,0,VALID,89.1344,VALID,0,VALID,20.1486,VALID,168,VALID,1.31429,
1999-12-28, 00:59:00,VALID,0,VALID,88.7809,VALID,-0.0169808,VALID,20.1319,VALID,195,VALID,1.51983,
1999-12-28, 01:00:00,VALID,0,VALID,88.8966,VALID,-0.0339617,VALID,20.1411,VALID,193,VALID,1.14464,
1999-12-28, 01:01:00,VALID,0,VALID,88.936,VALID,0,VALID,20.1419,VALID,168,VALID,1.43359,
1999-12-28, 01:02:00,VALID,0,VALID,88.9932,VALID,-0.0679233,VALID,20.1352,VALID,197,VALID,0.9625,
1999-12-28, 01:03:00,VALID,0,VALID,88.4897,VALID,-0.0679233,VALID,20.1645,VALID,200,VALID,2.0012,
1999-12-28, 01:04:00,VALID,0,VALID,88.6258,VALID,-0.0509425,VALID,20.1996,VALID,209,VALID,1.53973,
1999-12-28, 01:05:00,VALID,0,VALID,88.9017,VALID,-0.0339617,VALID,20.1901,VALID,208,VALID,1.73351,
1999-12-28, 01:06:00,VALID,0,VALID,88.496,VALID,-0.0169808,VALID,20.1899,VALID,178,VALID,1.34196,
1999-12-28, 01:07:00,VALID,0,VALID,88.7809,VALID,-0.0339617,VALID,20.2025,VALID,196,VALID,1.02804,
1999-12-28, 01:08:00,VALID,0,VALID,88.3638,VALID,0,VALID,20.1998,VALID,180,VALID,1.4433,
1999-12-28, 01:09:00,VALID,0,VALID,88.3969,VALID,-0.0509425,VALID,20.2122,VALID,194,VALID,1.2908,
1999-12-28, 01:10:00,VALID,0,VALID,88.4986,VALID,-0.0169808,VALID,20.2185,VALID,220,VALID,1.54531,
1999-12-28, 01:11:00,VALID,0,VALID,88.5558,VALID,0,VALID,20.2219,VALID,214,VALID,1.6222,
1999-12-28, 01:12:00,VALID,0,VALID,88.641,VALID,-0.0339617,VALID,20.212,VALID,223,VALID,1.44554,
1999-12-28, 01:13:00,VALID,0,VALID,88.6423,VALID,-0.0169808,VALID,20.1996,VALID,233,VALID,1.74414,
1999-12-28, 01:14:00,VALID,0,VALID,88.669,VALID,-0.0339617,VALID,20.1829,VALID,206,VALID,1.47946,
1999-12-28, 01:15:00,VALID,0,VALID,88.9398,VALID,-0.0509425,VALID,20.1702,VALID,235,VALID,0.748397,
1999-12-28, 01:16:00,VALID,0,VALID,89.1802,VALID,-0.0849042,VALID,20.1774,VALID,217,VALID,0.72433,
1999-12-28, 01:17:00,VALID,0,VALID,89.1179,VALID,-0.0169808,VALID,20.1451,VALID,231,VALID,1.01519,
1999-12-28, 01:18:00,VALID,0,VALID,88.7326,VALID,0,VALID,20.1349,VALID,203,VALID,1.18438,
1999-12-28, 01:19:00,VALID,0,VALID,88.7237,VALID,-0.0169808,VALID,20.1772,VALID,236,VALID,0.805288,
1999-12-28, 01:20:00,VALID,0,VALID,88.4515,VALID,0.0169808,VALID,20.1988,VALID,226,VALID,1.3067,
1999-12-28, 01:21:00,VALID,0,VALID,88.505,VALID,0.0339617,VALID,20.2209,VALID,230,VALID,1.10872,
1999-12-28, 01:22:00,VALID,0,VALID,88.8585,VALID,0.0169808,VALID,20.2169,VALID,214,VALID,0.716071,
1999-12-28, 01:23:00,VALID,0,VALID,88.8534,VALID,0.0679233,VALID,20.2072,VALID,242,VALID,0.737981,
1999-12-28, 01:24:00,VALID,0,VALID,88.8661,VALID,0.0169808,VALID,20.2013,VALID,224,VALID,0.792634,
1999-12-28, 01:25:00,VALID,0,VALID,88.8,VALID,0.0169808,VALID,20.2013,VALID,223,VALID,1.42535,
1999-12-28, 01:26:00,VALID,0,VALID,88.7351,VALID,0.0679233,VALID,20.1946,VALID,215,VALID,1.17545,
1999-12-28, 01:27:01,VALID,0,VALID,88.9157,VALID,0.101885,VALID,20.1948,VALID,230,VALID,0.95653,
1999-12-28, 01:28:00,VALID,0,VALID,88.6804,VALID,0.0849042,VALID,20.1779,VALID,220,VALID,1.34085,
1999-12-28, 01:29:00,VALID,0,VALID,88.6842,VALID,0.0679233,VALID,20.2107,VALID,213,VALID,1.31923,
1999-12-28, 01:30:00,VALID,0,VALID,88.8546,VALID,0.0679233,VALID,20.2242,VALID,207,VALID,1.32946,
1999-12-28, 01:31:00,VALID,0,VALID,89.0848,VALID,0.0679233,VALID,20.2075,VALID,230,VALID,1.20272,
1999-12-28, 01:32:00,VALID,0,VALID,88.978,VALID,0.0679233,VALID,20.1746,VALID,203,VALID,1.02277,
1999-12-28, 01:33:00,VALID,0,VALID,89.1331,VALID,0.0849042,VALID,20.1717,VALID,214,VALID,1.8839,
1999-12-28, 01:34:00,VALID,0,VALID,89.2069,VALID,0.0849042,VALID,20.1615,VALID,220,VALID,1.38437,
1999-12-28, 01:35:00,VALID,0,VALID,89.4116,VALID,-0.0169808,VALID,20.1695,VALID,230,VALID,1.42368,
1999-12-28, 01:36:00,VALID,0,VALID,89.2603,VALID,-0.0509425,VALID,20.1543,VALID,226,VALID,1.71183,
1999-12-28, 01:37:00,VALID,0,VALID,89.5248,VALID,-0.0169808,VALID,20.1374,VALID,219,VALID,0.877821,
1999-12-28, 01:38:01,VALID,0,VALID,89.994,VALID,-0.0169808,VALID,20.1239,VALID,240,VALID,0.580134,
1999-12-28, 01:39:00,VALID,0,VALID,89.8147,VALID,0,VALID,20.1053,VALID,220,VALID,0.58113,
1999-12-28, 01:40:00,VALID,0,VALID,89.9113,VALID,-0.0339617,VALID,20.0794,VALID,222,VALID,0.773884,
1999-12-28, 01:41:00,VALID,0,VALID,89.802,VALID,-0.0169808,VALID,20.0797,VALID,213,VALID,0.643229,
1999-12-28, 01:42:00,VALID,0,VALID,89.643,VALID,-0.0339617,VALID,20.0765,VALID,245,VALID,1.96317,
1999-12-28, 01:43:00,VALID,0,VALID,89.835,VALID,-0.0169808,VALID,20.0854,VALID,214,VALID,1.23277,
1999-12-28, 01:44:00,VALID,0,VALID,89.7181,VALID,-0.0339617,VALID,20.0794,VALID,214,VALID,1.24554,
1999-12-28, 01:45:00,VALID,0,VALID,89.891,VALID,-0.0339617,VALID,20.1026,VALID,223,VALID,1.09896,
1999-12-28, 01:46:00,VALID,0,VALID,90.2585,VALID,-0.0679233,VALID,20.0869,VALID,215,VALID,1.04799,
1999-12-28, 01:47:00,VALID,0,VALID,90.3043,VALID,-0.0339617,VALID,20.0476,VALID,217,VALID,1.85457,
1999-12-28, 01:48:00,VALID,0,VALID,90.4111,VALID,-0.0339617,VALID,20.0314,VALID,233,VALID,1.64598,
1999-12-28, 01:49:01,VALID,0,VALID,90.8829,VALID,-0.0339617,VALID,20.0018,VALID,209,VALID,1.12305,
1999-12-28, 01:50:00,VALID,0,VALID,90.7404,VALID,-0.0509425,VALID,19.9598,VALID,199,VALID,1.23504,
1999-12-28, 01:51:00,VALID,0,VALID,90.4047,VALID,-0.0509425,VALID,19.9541,VALID,219,VALID,1.79888,
1999-12-28, 01:52:00,VALID,0,VALID,89.9813,VALID,-0.0849042,VALID,19.9892,VALID,199,VALID,2.02009,
1999-12-28, 01:53:00,VALID,0,VALID,89.9838,VALID,-0.0509425,VALID,20.0379,VALID,225,VALID,1.79579,
1999-12-28, 01:54:00,VALID,0,VALID,89.8338,VALID,-0.0509425,VALID,20.0638,VALID,214,VALID,1.73571,
1999-12-28, 01:55:00,VALID,0,VALID,89.9965,VALID,-0.0169808,VALID,20.063,VALID,203,VALID,2.03526,
1999-12-28, 01:56:00,VALID,0,VALID,90.2445,VALID,-0.0339617,VALID,20.0409,VALID,218,VALID,2.09598,
1999-12-28, 01:57:00,VALID,0,VALID,90.1402,VALID,-0.0339617,VALID,20.0277,VALID,216,VALID,2.00347,
1999-12-28, 01:58:00,VALID,0,VALID,90.158,VALID,-0.0509425,VALID,20.0245,VALID,215,VALID,1.88147,
1999-12-28, 01:59:00,VALID,0,VALID,89.9902,VALID,-0.0169808,VALID,20.0476,VALID,201,VALID,1.38962,
1999-12-28, 02:00:01,VALID,0,VALID,90.0677,VALID,-0.0169808,VALID,20.0479,VALID,212,VALID,1.82054,
1999-12-28, 02:01:00,VALID,0,VALID,89.8198,VALID,-0.0169808,VALID,20.0342,VALID,197,VALID,2.21159,
1999-12-28, 02:02:00,VALID,0,VALID,89.5998,VALID,-0.0169808,VALID,20.0737,VALID,210,VALID,1.46741,
1999-12-28, 02:03:00,VALID,0,VALID,89.7397,VALID,-0.0339617,VALID,20.073,VALID,170,VALID,1.76398,
1999-12-28, 02:04:00,VALID,0,VALID,90.1466,VALID,-0.0169808,VALID,20.0506,VALID,180,VALID,1.29821,
1999-12-28, 02:05:00,VALID,0,VALID,89.933,VALID,-0.0169808,VALID,20.0118,VALID,205,VALID,2.07878,
1999-12-28, 02:06:00,VALID,0,VALID,89.8579,VALID,-0.0169808,VALID,20.0183,VALID,208,VALID,1.91674,
1999-12-28, 02:07:00,VALID,0,VALID,89.8071,VALID,0,VALID,20.015,VALID,206,VALID,1.66186,
1999-12-28, 02:08:00,VALID,0,VALID,89.9012,VALID,-0.0339617,VALID,20.0048,VALID,215,VALID,1.47969,
1999-12-28, 02:09:00,VALID,0,VALID,89.9012,VALID,-0.0339617,VALID,19.9986,VALID,200,VALID,1.77821,
1999-12-28, 02:10:00,VALID,0,VALID,90.3297,VALID,-0.0679233,VALID,19.9732,VALID,149,VALID,1.26719,
1999-12-28, 02:11:01,VALID,0,VALID,89.9813,VALID,-0.0339617,VALID,19.9213,VALID,207,VALID,2.38081,
1999-12-28, 02:12:00,VALID,0,VALID,89.5871,VALID,-0.0339617,VALID,19.9501,VALID,199,VALID,1.93728,
1999-12-28, 02:13:00,VALID,0,VALID,88.8585,VALID,-0.0169808,VALID,19.9926,VALID,199,VALID,1.83941,
1999-12-28, 02:14:00,VALID,0,VALID,88.744,VALID,-0.0169808,VALID,20.0444,VALID,215,VALID,1.60067,
1999-12-28, 02:15:00,VALID,0,VALID,88.9665,VALID,0,VALID,20.0765,VALID,200,VALID,1.46174,
1999-12-28, 02:16:00,VALID,0,VALID,89.2005,VALID,-0.0169808,VALID,20.0635,VALID,202,VALID,1.50402,
1999-12-28, 02:17:00,VALID,0,VALID,89.2476,VALID,-0.0169808,VALID,20.0317,VALID,204,VALID,0.769097,
1999-12-28, 02:18:00,VALID,0,VALID,89.2348,VALID,-0.0339617,VALID,20.0148,VALID,207,VALID,1.48103,
1999-12-28, 02:19:00,VALID,0,VALID,89.507,VALID,-0.0339617,VALID,20.025,VALID,225,VALID,2.05268,
1999-12-28, 02:20:00,VALID,0,VALID,89.6125,VALID,0,VALID,20.0185,VALID,211,VALID,1.73013,
1999-12-28, 02:21:00,VALID,0,VALID,89.8745,VALID,0.0169808,VALID,19.9986,VALID,201,VALID,1.64171,
1999-12-28, 02:22:01,VALID,0,VALID,90.0143,VALID,0.0169808,VALID,19.9601,VALID,224,VALID,1.49643,
1999-12-28, 02:23:00,VALID,0,VALID,90.0576,VALID,0.0169808,VALID,19.9471,VALID,222,VALID,2.13662,
1999-12-28, 02:24:00,VALID,0,VALID,90.0805,VALID,0,VALID,19.9374,VALID,213,VALID,1.77589,
1999-12-28, 02:25:00,VALID,0,VALID,89.9724,VALID,0.0169808,VALID,19.9466,VALID,185,VALID,1.91233,
1999-12-28, 02:26:00,VALID,0,VALID,90.2203,VALID,0.0169808,VALID,19.9272,VALID,191,VALID,1.43839,
1999-12-28, 02:27:00,VALID,0,VALID,90.5815,VALID,0.0169808,VALID,19.9046,VALID,193,VALID,1.14223,
1999-12-28, 02:28:00,VALID,0,VALID,90.3221,VALID,0,VALID,19.8559,VALID,195,VALID,1.75781,
1999-12-28, 02:29:00,VALID,0,VALID,90.2089,VALID,0,VALID,19.8894,VALID,195,VALID,2.16623,
1999-12-28, 02:30:00,VALID,0,VALID,90.3602,VALID,0.0169808,VALID,19.8855,VALID,187,VALID,1.44866,
1999-12-28, 02:31:00,VALID,0,VALID,90.3386,VALID,0,VALID,19.8723,VALID,217,VALID,1.39363,
1999-12-28, 02:32:00,VALID,0,VALID,90.3768,VALID,0,VALID,19.886,VALID,203,VALID,1.42411,
1999-12-28, 02:33:00,VALID,0,VALID,90.303,VALID,0.0339617,VALID,19.8957,VALID,196,VALID,1.8622,
1999-12-28, 02:34:00,VALID,0,VALID,90.4848,VALID,-0.0169808,VALID,19.8857,VALID,192,VALID,0.879241,
1999-12-28, 02:35:00,VALID,0,VALID,90.551,VALID,0.0169808,VALID,19.8797,VALID,221,VALID,1.13682,
1999-12-28, 02:36:00,VALID,0,VALID,90.5255,VALID,0,VALID,19.8534,VALID,200,VALID,1.96406,
1999-12-28, 02:37:00,VALID,0,VALID,90.3335,VALID,0.0169808,VALID,19.837,VALID,199,VALID,1.74848,
1999-12-28, 02:38:00,VALID,0,VALID,90.0067,VALID,0.0169808,VALID,19.8407,VALID,223,VALID,1.96451,
1999-12-28, 02:39:00,VALID,0,VALID,89.8885,VALID,0.0169808,VALID,19.8534,VALID,221,VALID,2.36639,
1999-12-28, 02:40:00,VALID,0,VALID,89.9508,VALID,0,VALID,19.8628,VALID,206,VALID,1.18504,
1999-12-28, 02:41:00,VALID,0,VALID,90.1784,VALID,0,VALID,19.8601,VALID,202,VALID,0.948568,
1999-12-28, 02:42:00,VALID,0,VALID,89.8389,VALID,0.0169808,VALID,19.8173,VALID,191,VALID,0.965625,
1999-12-28, 02:43:00,VALID,0,VALID,89.5795,VALID,0.0169808,VALID,19.8081,VALID,207,VALID,1.61919,
1999-12-28, 02:44:00,VALID,0,VALID,89.156,VALID,0,VALID,19.8074,VALID,188,VALID,2.48817,
1999-12-28, 02:45:00,VALID,0,VALID,88.8305,VALID,0.0679233,VALID,19.831,VALID,195,VALID,1.99674,
1999-12-28, 02:46:00,VALID,0,VALID,88.7962,VALID,0.0169808,VALID,19.8526,VALID,200,VALID,1.95134,
1999-12-28, 02:47:00,VALID,0,VALID,88.2646,VALID,0,VALID,19.9019,VALID,210,VALID,3.55248,
1999-12-28, 02:48:00,VALID,0,VALID,88.5355,VALID,0,VALID,19.9342,VALID,217,VALID,1.84911,
1999-12-28, 02:49:00,VALID,0,VALID,88.7707,VALID,0,VALID,19.9116,VALID,190,VALID,2.0115,
1999-12-28, 02:50:00,VALID,0,VALID,88.8826,VALID,0.0169808,VALID,19.8728,VALID,211,VALID,1.76786,
1999-12-28, 02:51:00,VALID,0,VALID,89.212,VALID,0,VALID,19.8472,VALID,208,VALID,2.04447,
1999-12-28, 02:52:00,VALID,0,VALID,89.1675,VALID,0,VALID,19.8377,VALID,188,VALID,1.86987,
1999-12-28, 02:53:00,VALID,0,VALID,89.3302,VALID,0.0169808,VALID,19.8051,VALID,200,VALID,1.63889,
1999-12-28, 02:54:00,VALID,0,VALID,89.0517,VALID,0.0169808,VALID,19.8019,VALID,198,VALID,2.02612,
1999-12-28, 02:55:00,VALID,0,VALID,88.9615,VALID,0,VALID,19.7887,VALID,222,VALID,1.61538,
1999-12-28, 02:56:00,VALID,0,VALID,88.7911,VALID,0.0169808,VALID,19.7887,VALID,199,VALID,2.10692,
1999-12-28, 02:57:00,VALID,0,VALID,89.0263,VALID,0.0169808,VALID,19.7658,VALID,178,VALID,1.14149,
1999-12-28, 02:58:00,VALID,0,VALID,89.0886,VALID,0,VALID,19.7402,VALID,206,VALID,0.869196,
1999-12-28, 02:59:00,VALID,0,VALID,87.728,VALID,0.0169808,VALID,19.7599,VALID,210,VALID,2.76542,
1999-12-28, 03:00:00,VALID,0,VALID,86.815,VALID,0.0169808,VALID,19.8561,VALID,193,VALID,2.59308,
1999-12-28, 03:01:00,VALID,0,VALID,87.1977,VALID,0.0339617,VALID,19.9439,VALID,196,VALID,1.70573,
1999-12-28, 03:02:00,VALID,0,VALID,86.8913,VALID,0.0339617,VALID,19.9374,VALID,226,VALID,2.31629,
1999-12-28, 03:03:00,VALID,0,VALID,86.8569,VALID,0.0339617,VALID,19.9404,VALID,196,VALID,1.87861,
1999-12-28, 03:04:00,VALID,0,VALID,86.8722,VALID,0,VALID,19.9469,VALID,188,VALID,1.77813,
1999-12-28, 03:05:00,VALID,0,VALID,87.1494,VALID,-0.0169808,VALID,19.9379,VALID,200,VALID,1.45833,
1999-12-28, 03:06:00,VALID,0,VALID,87.1253,VALID,-0.0679233,VALID,19.8899,VALID,181,VALID,1.67902,
1999-12-28, 03:07:00,VALID,0,VALID,86.9129,VALID,-0.0169808,VALID,19.8738,VALID,183,VALID,2.13522,
1999-12-28, 03:08:00,VALID,0,VALID,86.3941,VALID,-0.0509425,VALID,19.9064,VALID,198,VALID,1.98683,
1999-12-28, 03:09:00,VALID,0,VALID,86.0571,VALID,-0.101885,VALID,19.9685,VALID,193,VALID,1.9069,
1999-12-28, 03:10:00,VALID,0,VALID,86.6408,VALID,-0.101885,VALID,19.9976,VALID,213,VALID,1.61027,
1999-12-28, 03:11:00,VALID,0,VALID,87.0248,VALID,-0.101885,VALID,19.9909,VALID,237,VALID,1.69872,
1999-12-28, 03:12:00,VALID,0,VALID,87.4228,VALID,-0.101885,VALID,19.9586,VALID,205,VALID,1.46362,
1999-12-28, 03:13:00,VALID,0,VALID,87.8246,VALID,-0.0679233,VALID,19.9163,VALID,222,VALID,2.43403,
1999-12-28, 03:14:00,VALID,0,VALID,87.8475,VALID,-0.0849042,VALID,19.8551,VALID,176,VALID,1.47924,
1999-12-28, 03:15:00,VALID,0,VALID,87.934,VALID,-0.101885,VALID,19.8031,VALID,176,VALID,1.47396,
1999-12-28, 03:16:00,VALID,0,VALID,87.8183,VALID,-0.101885,VALID,19.7713,VALID,175,VALID,1.06741,
1999-12-28, 03:17:00,VALID,0,VALID,88.3943,VALID,-0.0849042,VALID,19.7517,VALID,194,VALID,1.31467,
1999-12-28, 03:18:00,VALID,0,VALID,88.669,VALID,-0.101885,VALID,19.7196,VALID,221,VALID,1.29866,
1999-12-28, 03:19:00,VALID,0,VALID,88.8712,VALID,-0.101885,VALID,19.6873,VALID,201,VALID,1.17648,
1999-12-28, 03:20:00,VALID,0,VALID,88.8343,VALID,-0.0679233,VALID,19.6602,VALID,163,VALID,1.40848,
1999-12-28, 03:21:00,VALID,0,VALID,88.3867,VALID,-0.0169808,VALID,19.647,VALID,223,VALID,1.59961,
1999-12-28, 03:22:00,VALID,0,VALID,88.2926,VALID,-0.0169808,VALID,19.6892,VALID,157,VALID,1.70112,
1999-12-28, 03:23:00,VALID,0,VALID,87.6479,VALID,0,VALID,19.7149,VALID,171,VALID,1.75701,
1999-12-28, 03:24:00,VALID,0,VALID,87.789,VALID,0,VALID,19.7703,VALID,198,VALID,1.1808,
1999-12-28, 03:25:00,VALID,0,VALID,88.1031,VALID,-0.0169808,VALID,19.7631,VALID,197,VALID,1.07595,
1999-12-28, 03:26:00,VALID,0,VALID,88.1451,VALID,-0.0169808,VALID,19.7569,VALID,170,VALID,1.42545,
1999-12-28, 03:27:00,VALID,0,VALID,87.9289,VALID,0,VALID,19.7375,VALID,146,VALID,2.04087,
1999-12-28, 03:28:00,VALID,0,VALID,87.9696,VALID,0,VALID,19.7537,VALID,197,VALID,1.42388,
1999-12-28, 03:29:00,VALID,0,VALID,87.9378,VALID,0,VALID,19.7696,VALID,227,VALID,1.86328,
1999-12-28, 03:30:00,VALID,0,VALID,87.5856,VALID,0,VALID,19.8056,VALID,187,VALID,1.46183,
1999-12-28, 03:31:00,VALID,0,VALID,88.1069,VALID,-0.0169808,VALID,19.8218,VALID,199,VALID,1.55208,
1999-12-28, 03:32:00,VALID,0,VALID,88.5698,VALID,-0.0169808,VALID,19.786,VALID,186,VALID,0.695982,
1999-12-28, 03:33:00,VALID,0,VALID,88.7364,VALID,0,VALID,19.741,VALID,214,VALID,0.955078,
1999-12-28, 03:34:00,VALID,0,VALID,88.374,VALID,-0.0169808,VALID,19.7246,VALID,222,VALID,2.86317,
1999-12-28, 03:35:00,VALID,0,VALID,88.6931,VALID,-0.0509425,VALID,19.7218,VALID,205,VALID,1.25861,
1999-12-28, 03:36:00,VALID,0,VALID,88.7491,VALID,-0.0169808,VALID,19.6992,VALID,193,VALID,1.42656,
1999-12-28, 03:37:00,VALID,0,VALID,88.8661,VALID,-0.0339617,VALID,19.6828,VALID,205,VALID,1.14149,
1999-12-28, 03:38:00,VALID,0,VALID,88.9081,VALID,-0.0339617,VALID,19.6758,VALID,214,VALID,1.04554,
1999-12-28, 03:39:00,VALID,0,VALID,88.7783,VALID,0,VALID,19.6694,VALID,215,VALID,1.30929,
1999-12-28, 03:40:00,VALID,0,VALID,88.772,VALID,0,VALID,19.6664,VALID,202,VALID,1.29777,
1999-12-28, 03:41:00,VALID,0,VALID,88.3447,VALID,-0.0509425,VALID,19.6699,VALID,207,VALID,2.05425,
1999-12-28, 03:42:00,VALID,0,VALID,88.3104,VALID,0,VALID,19.7049,VALID,206,VALID,1.6096,
1999-12-28, 03:43:00,VALID,0,VALID,88.154,VALID,0,VALID,19.7348,VALID,194,VALID,1.42748,
1999-12-28, 03:44:00,VALID,0,VALID,88.2926,VALID,-0.0339617,VALID,19.7412,VALID,212,VALID,0.983259,
1999-12-28, 03:45:00,VALID,0,VALID,88.4414,VALID,-0.0339617,VALID,19.7315,VALID,224,VALID,1.44748,
1999-12-28, 03:46:00,VALID,0,VALID,88.5444,VALID,-0.0679233,VALID,19.735,VALID,224,VALID,1.55357,
1999-12-28, 03:47:00,VALID,0,VALID,88.7364,VALID,-0.0509425,VALID,19.7246,VALID,215,VALID,1.39663,
1999-12-28, 03:48:00,VALID,0,VALID,89.0517,VALID,0,VALID,19.7154,VALID,217,VALID,2.47121,
1999-12-28, 03:49:00,VALID,0,VALID,89.3277,VALID,0,VALID,19.696,VALID,199,VALID,1.69141,
1999-12-28, 03:50:00,VALID,0,VALID,89.4383,VALID,0,VALID,19.6694,VALID,204,VALID,1.68371,
1999-12-28, 03:51:00,VALID,0,VALID,89.5273,VALID,-0.0169808,VALID,19.6634,VALID,198,VALID,1.20373,
1999-12-28, 03:52:00,VALID,0,VALID,89.6723,VALID,-0.0339617,VALID,19.6537,VALID,201,VALID,1.04174,
1999-12-28, 03:53:00,VALID,0,VALID,89.802,VALID,-0.0679233,VALID,19.6507,VALID,196,VALID,1.64865,
1999-12-28, 03:54:00,VALID,0,VALID,89.8897,VALID,-0.0169808,VALID,19.6278,VALID,208,VALID,1.73996,
1999-12-28, 03:55:00,VALID,0,VALID,89.8414,VALID,-0.0169808,VALID,19.634,VALID,201,VALID,1.6234,
1999-12-28, 03:56:00,VALID,0,VALID,90.0245,VALID,-0.0339617,VALID,19.6475,VALID,232,VALID,1.26339,
1999-12-28, 03:57:00,VALID,0,VALID,90.0703,VALID,-0.0169808,VALID,19.6276,VALID,206,VALID,1.41992,
1999-12-28, 03:58:00,VALID,0,VALID,89.9037,VALID,0,VALID,19.6375,VALID,207,VALID,2.09174,
1999-12-28, 03:59:00,VALID,0,VALID,90.1466,VALID,0,VALID,19.6408,VALID,227,VALID,1.88882,
1999-12-28, 04:00:00,VALID,0,VALID,90.0919,VALID,0,VALID,19.6278,VALID,216,VALID,2.0596,
1999-12-28, 04:01:00,VALID,0,VALID,90.0716,VALID,-0.0169808,VALID,19.6246,VALID,204,VALID,2.28711,
1999-12-28, 04:02:00,VALID,0,VALID,90.1262,VALID,-0.0169808,VALID,19.6343,VALID,219,VALID,1.86897,
1999-12-28, 04:03:00,VALID,0,VALID,90.3297,VALID,-0.0339617,VALID,19.6246,VALID,204,VALID,1.69151,
1999-12-28, 04:04:00,VALID,0,VALID,90.4836,VALID,-0.0169808,VALID,19.6025,VALID,189,VALID,1.28125,
1999-12-28, 04:05:00,VALID,0,VALID,90.6972,VALID,0,VALID,19.5826,VALID,185,VALID,0.891493,